AirNav   TITAN Aviation Fuels
 
 1112 users online  

6G8 Brooklyn Airport
Brooklyn, Michigan, USA

GOING TO BROOKLYN?


FAA INFORMATION EFFECTIVE 14 JULY 2022

Location

FAA Identifier: 6G8
Lat/Long: 42-05-39.1750N 084-14-27.4250W
42-05.652917N 084-14.457083W
42.0942153,-84.2409514
(estimated)
Elevation: 987 ft. / 301 m (estimated)
Variation: 05W (1985)
From city: 1 mile SE of BROOKLYN, MI
Time zone: UTC -4 (UTC -5 during Standard Time)
Zip code: 49230

Airport Operations

Airport use: Open to the public
Activation date: 12/1975
Control tower: no
ARTCC: CLEVELAND CENTER
FSS: LANSING FLIGHT SERVICE STATION
NOTAMs facility: LAN (NOTAM-D service available)
Attendance: MAY-NOV IREG
ARPT CLOSED DEC-APR.
Wind indicator: lighted
Segmented circle: yes
Lights: LIRL RWY 01/19 OTS INDEFLY.
Landing fee: no, OVERNIGHT FEE.

Airport Communications

CTAF: 122.9
WX ASOS at JXN (14 nm NW): PHONE 517-768-7506
WX ASOS at ADG (15 nm SE): 118.375 (517-265-9089)
WX AWOS-3 at JYM (19 nm SW): 121.025 (517-437-5638)

Nearby radio navigation aids

VOR radial/distance  VOR name  Freq  Var
LFDr090/23.4LITCHFIELD VOR/DME111.2005W
SVMr240/34.4SALEM VORTAC114.3003W
CRLr278/35.0CARLETON VOR/DME115.7003W
DXOr266/39.5DETROIT VOR/DME113.4006W

 
NDB name  Hdg/Dist  Freq  Var  ID
ADRIAN338/15.327806WADG .- -.. --.
TECUMSEH289/16.223906WTCU - -.-. ..-

Airport Services

Parking: hangars and tiedowns

Runway Information

Runway 1/19

Dimensions: 2822 x 100 ft. / 860 x 30 m
Surface: turf, in fair condition
Runway edge lights: low intensity
Runway edge markings: 3 FT YELLOW CONES; DTHR MKD WITH 3 CONES EACH SIDE.
RUNWAY 1  RUNWAY 19
Latitude: 42-05.423167N42-05.882667N
Longitude: 084-14.503167W084-14.411000W
Elevation: 980.0 ft.981.0 ft.
Traffic pattern: rightleft
Runway heading: 013 magnetic, 008 true193 magnetic, 188 true
Displaced threshold: no613 ft.
Obstructions: 32 ft. tree, 44 ft. from runway, 107 ft. left of centerline, 1:1 slope to clear
APCH RATIO 20:1 TO DTHR OVR 105 FT TWR, 2118 FT DIST, 110 FT L.
52 ft. trees, marked, 435 ft. from runway, 140 ft. right of centerline, 8:1 slope to clear

Airport Ownership and Management from official FAA records

Ownership: Privately-owned
Owner: CRAIG PEARSON
PO BOX 324
BROOKLYN, MI 49230-0324
Phone 586-646-8199
RESIDES ON ARPT PREMISES.
Manager: CRAIG PEARSON
PO BOX 324
BROOKLYN, MI 49230-0324
Phone 586-646-8199

Airport Operational Statistics

Aircraft based on the field: 1
Single engine airplanes: 1
    
Aircraft operations: avg 46/month *
82% transient general aviation
18% local general aviation
* for 12-month period ending 31 December 2021

Additional Remarks

105 FT MKD PLINE & TWR, 0.25 NM FM RWY 19 THR, EXTDD L & R OF CNTRLN.
DEER & BIRDS ON & INVOF ARPT.
ADMIN BLDG ACES 1-2-2-9.
FOR CD CTC GREAT LAKES APCH AT 269-459-3345, WHEN APCH CLSD CTC CLEVELAND ARTCC AT 440-774-0229/0490.

Instrument Procedures

There are no published instrument procedures at 6G8.

Some nearby airports with instrument procedures:

KJXN - Jackson County Airport-Reynolds Field (14 nm NW)
KADG - Lenawee County Airport (15 nm SE)
KJYM - Hillsdale Municipal Airport (19 nm SW)
KARB - Ann Arbor Municipal Airport (23 nm E)
KTEW - Mason Jewett Field Airport (29 nm N)
 
Loc | Ops | Rwys | IFR | FBO | Links
Com | Nav | Svcs | Stats | Notes
Area around 6G8 (Brooklyn Airport)
 
Road maps at: MapQuest Bing Google
 
Aerial photo
WARNING: Photo may not be current or correct
Aerial photo of 6G8 (Brooklyn Airport)
Credit: M. Coleman - LocalHangar.com

Do you have a better or more recent aerial photo of Brooklyn Airport that you would like to share? If so, please send us your photo.

 
Sectional chart

 
Airport distance calculator
Flying to Brooklyn Airport? Find the distance to fly.

From to 6G8

Sunrise and sunset
Times for 07-Aug-2022
 Local
(UTC-4)
 Zulu
(UTC)
Morning civil twilight06:0610:06
Sunrise06:3710:37
Sunset20:4800:48
Evening civil twilight21:1901:19

Current date and time
Zulu (UTC)  07-Aug-2022 15:24:52
Local (UTC-4)  07-Aug-2022 11:24:52
 
METAR
KJXN 
14nm NW 
071456Z 22009KT 10SM BKN015 28/23 A3009 RMK AO2 SLP183 T02780233 53000
KADG 
15nm SE 
071453Z AUTO 24007KT 10SM CLR 28/24 A3011 RMK AO2 SLP191 T02780239 56001
KJYM 
19nm SW 
071455Z AUTO 25008KT 10SM OVC012 28/24 A3012 RMK AO2 T02750238
KARB 
24nm E 
734-668-7173
071453Z 23009KT 10SM CLR 28/23 A3009 RMK AO2 SLP185 T02830233 51002
TAF
KJXN 
14nm NW 
071412Z 0714/0812 21010KT P6SM BKN015 FM071700 24010KT P6SM VCSH BKN045 FM072100 26009KT P6SM VCTS BKN070CB FM080600 25008KT P6SM OVC021 FM080900 24005KT 6SM BR OVC007
NOTAMs
Click for the latest NOTAMs
NOTAMs are issued by the DoD/FAA and will open in a separate window not controlled by AirNav.

 

 
 

Would you like to see your business listed on this page?

 If your business provides an interesting product or service to pilots, flight crews, aircraft, or users of the Brooklyn Airport, you should consider listing it here.  To start the listing process, click on the button below
 
Add a business
 

Other Pages about Brooklyn Airport

Page from the Michigan Airport Directory (PDF)
 
Update a link
 
Copyright © AirNav, LLC. All rights reserved. Privacy Policy  Contact